User: anonymous   Login
Location: Unspecified
(0.0000°N, 0.0000°E)
Time: 10:48:30
(UTC+02:00)
Language:

ARIANE 5 R/B - Orbit

View from above orbital plane
View from above orbital plane
View from above satellite
View from above satellite

Ground track
Ground track

The orbit data is extracted from the following two-line orbital elements,

1 27387U 02009B   16267.88711033 +.00000011 +00000-0 +18680-4 0  9990
2 27387 098.4256 216.6974 0031715 210.7698 149.1630 14.35908173763289
Epoch (UTC): 23 September 2016 21:17:26
Eccentricity: 0.0031715
inclination: 98.4256°
perigee height: 749 km
apogee height: 795 km
right ascension of ascending node: 216.6974°
argument of perigee: 210.7698°
revolutions per day: 14.35908173
mean anomaly at epoch: 149.1630°
orbit number at epoch: 76328

The dashed part of the orbit path shows where the satellite is in the earth's shadow,  

DLR